^^
Meteo Knjazevac Station Historical Data
Daily Summary for February 28, 2021 Units:  Metric    English   Both
Daily Weekly Monthly Yearly Custom
  High: Low: Average:
Temperature: 16.4 °C 15.5 °C 16.1 °C
Dew Point: 15.1 °C 14.4 °C 14.7 °C
Humidity: 94% 89% 92%
Wind Speed: 8km/h 0km/h 2.4km/h
Wind Gust: 19.3km/h - -
Wind- - SSW
Pressure: 1019.9 hPa 1019.5 hPa -
Precipitation: 0 mm    
Historical Graphs
 
 
Tabular Data for February 28, 2021
Time Temperature Dew Point Pressure Wind Wind Speed Wind Gust Humidity Rainfall Rate (Hourly) solar Conditions
00:00 16.1 °C 14.6 °C 1019.9 hPa Calm   11.3 km/h 91% 0 mm 0 W/m2
00:10 16.1 °C 14.4 °C 1019.9 hPa East 8 km/h 12.9 km/h 90% 0 mm 0 W/m2
00:20 16.2 °C 14.7 °C 1019.9 hPa ESE 3.2 km/h 8 km/h 91% 0 mm 0 W/m2
00:30 16.2 °C 14.6 °C 1019.9 hPa SE 1.6 km/h 12.9 km/h 90% 0 mm 0 W/m2
00:40 16.2 °C 14.6 °C 1019.9 hPa ESE 8 km/h 19.3 km/h 90% 0 mm 0 W/m2
00:50 16.3 °C 14.5 °C 1019.9 hPa Calm   17.7 km/h 89% 0 mm 0 W/m2
01:00 16.3 °C 14.5 °C 1019.9 hPa East 8 km/h 11.3 km/h 89% 0 mm 0 W/m2
01:10 16.4 °C 14.6 °C 1019.9 hPa East 1.6 km/h 9.7 km/h 89% 0 mm 0 W/m2
01:20 16.4 °C 14.8 °C 1019.9 hPa South 1.6 km/h 9.7 km/h 90% 0 mm 0 W/m2
01:30 16.4 °C 14.9 °C 1019.9 hPa South 1.6 km/h 3.2 km/h 91% 0 mm 0 W/m2
01:40 16.2 °C 15.1 °C 1019.9 hPa SW 3.2 km/h 4.8 km/h 93% 0 mm 0 W/m2
01:50 16.1 °C 14.9 °C 1019.9 hPa Calm   4.8 km/h 93% 0 mm 0 W/m2
02:00 16 °C 14.9 °C 1019.9 hPa Calm   1.6 km/h 93% 0 mm 0 W/m2
02:10 16 °C 15.1 °C 1019.5 hPa NW 1.6 km/h 3.2 km/h 94% 0 mm 0 W/m2
02:20 15.9 °C 14.8 °C 1019.5 hPa NNW 1.6 km/h 4.8 km/h 93% 0 mm 0 W/m2
02:30 15.9 °C 14.9 °C 1019.5 hPa NNW 3.2 km/h 3.2 km/h 94% 0 mm 0 W/m2
02:40 15.8 °C 14.8 °C 1019.5 hPa NNW 1.6 km/h 6.4 km/h 94% 0 mm 0 W/m2
02:50 15.8 °C 14.8 °C 1019.5 hPa Calm   8 km/h 94% 0 mm 0 W/m2
03:00 15.7 °C 14.7 °C 1019.5 hPa Calm   3.2 km/h 94% 0 mm 0 W/m2
03:10 15.5 °C 14.6 °C 1019.5 hPa SW 1.6 km/h 3.2 km/h 94% 0 mm 0 W/m2
Knjazevac, Serbia
Compliments of Weather Underground - 2 mb